SAMESCEL

Guest
Details From SAME - El Plumerillo
To SCEL - Arturo Merino Benitez Intl
Flight Number -
Tags Generated
Created
Modified
Stats Distance 106 nm / 196 km
Max Altitude 0 ft / 0 m
Waypoints 2
Social Downloads 1
Likes 0
Share VATSIM

Download

Looking for another format? Having issues loading an existing format? Contact us
Advertisement - Login to hide

Notes

Generated

Route

SAME SCEL

ID Type Via Altitude Latitude Longitude Leg Dist Tot Dist Heading (true) Name
O SAME APT - 0 ft / 0 m -32.81817˚ -68.79271˚ - 0 nm - -
O SCEL APT - 0 ft / 0 m -33.37608˚ -70.78671˚ 105 nm 105 nm 251° / 252° -

Altitude Profile

Advertisement - Login to hide

SAME

Details ICAO SAME (MDZ)
Name El Plumerillo
Region Argentina
Timezone America/Argentina/Mendoza (UTC-3.0)
Stats Elevation 2,310 ft / 704 m (AMSL)
Location -32.831753° -68.792941°
Runways 1
Magnetic Variation 0.452° W

METAR

SAME 220600Z 00000KT CAVOK 08/03 Q1022

Decode

TAF

TAF SAME 220500Z 2206/2306 VRB03KT CAVOK TN07/2210Z TX19/2220Z BECMG 2211/2215 18005KT 9999 SCT040 BECMG 2221/2300 34005KT

Decode

Departure Runways

ID Width Length Bearing (true) Bearing (mag) Surface Threshold Offset Overrun Length
18 177 ft / 54 m 9,915 ft / 3,022 m 180.83° 181.28° Concrete 381 ft / 116 m 0 ft / 0 m
36 177 ft / 54 m 9,915 ft / 3,022 m 0.83° 1.28° Concrete 361 ft / 110 m 0 ft / 0 m

SCEL

Details ICAO SCEL (SCL)
Name Arturo Merino Benitez Intl
Region Chile
Timezone America/Santiago (UTC-4.0)
Stats Elevation 1,550 ft / 472 m (AMSL)
Location -33.389775° -70.794366°
Runways 2
Magnetic Variation 1.734° E

METAR

SCEL 220600Z 36004KT 8000 NSC 06/03 Q1018 NOSIG

Decode

TAF

TAF SCEL 220400Z 2206/2306 16004KT 8000 NSC TX24/2219Z TN03/2211Z TEMPO 2207/2212 VRB02KT 5000 HZ BECMG 2216/2218 19012KT CAVOK BECMG 2301/2303 18005KT BECMG 2304/2306 15004KT

Decode

Destination Runways

ID Width Length Bearing (true) Bearing (mag) Surface Threshold Offset Overrun Length
17L 180 ft / 55 m 10,523 ft / 3,207 m 177.43° 175.70° Asphalt 0 ft / 0 m 0 ft / 0 m
17R 148 ft / 45 m 12,504 ft / 3,811 m 177.44° 175.71° Asphalt 0 ft / 0 m 0 ft / 0 m
35L 148 ft / 45 m 12,504 ft / 3,811 m 357.44° 355.71° Asphalt 0 ft / 0 m 0 ft / 0 m
35R 180 ft / 55 m 10,523 ft / 3,207 m 357.43° 355.70° Asphalt 1,800 ft / 549 m 0 ft / 0 m

Approach Navaids

Runway Type Ident Frequency Range Bearing (true) Bearing (mag) Slope Elevation
17L Localiser IUEL 110.30 MHz 18 nm / 33 km 173.64° 171.90° - 1,555 ft / 474 m (AMSL)
17L Glidescope IUEL 110.30 MHz 10 nm / 19 km 174.00° 172.27° 3.00° 1,555 ft / 474 m (AMSL)
17L DME IUEL 110.30 MHz 18 nm / 33 km - - - 1,557 ft / 475 m (AMSL)
17R Localiser IMER 111.10 MHz 18 nm / 33 km 174.24° 172.50° - 1,555 ft / 474 m (AMSL)
17R Glidescope IMER 111.10 MHz 10 nm / 19 km 174.00° 172.27° 3.00° 1,555 ft / 474 m (AMSL)
17R DME IMER 111.10 MHz 18 nm / 33 km - - - 1,555 ft / 474 m (AMSL)

Popular Alternatives